Home > Weather > Kapfenberg > Past weeks

Flag for Austria Past Weather in Kapfenberg, Styria, Austria — Yesterday and Last 2 Weeks

Now
54 °F

Passing clouds.


Feels Like: 54 °F
Forecast: 56 / 82 °F
Wind: 1 mph from North

Location: Zeltweg

Current Time: Aug 27, 2016 at 5:27:02 AM

Latest Report: Aug 27, 2016 at 4:50 AM


Visibility: 5 mi

Pressure: 30.24 "Hg (28.47 "Hg at 504m altitude)

Humidity: 94%

Dew Point: 52 °F

Location of KapfenbergLocation

Past Weather in Kapfenberg — Graph

°F

Kapfenberg Temperature Yesterday

Maximum temperature yesterday: 81 °F (at 3:50 PM)
Minimum temperature yesterday: 55 °F (at 4:50 AM)
Average temperature yesterday: 67 °F

High & Low Weather Summary for the Past Weeks

 TemperatureHumidityPressure
High82 °F (Aug 14, 3:50 PM)100% (Aug 12, 6:50 AM)30.42 "Hg (Aug 12, 6:50 AM)
Low39 °F (Aug 12, 5:50 AM)34% (Aug 14, 2:20 PM)29.86 "Hg (Aug 18, 3:50 PM)
Average65 °F70%30.17 "Hg
* Reported Aug 11 10:50 PM — Aug 26 10:50 PM, Kapfenberg, Weather by CustomWeather, © 2016

Note: Actual official high and low records may vary slightly from our data, if they occured in-between our weather recording intervals... More about our weather records

Advertising

Kapfenberg Weather History for the Previous 24 Hours

Scroll right to see more
 ConditionsComfort  
Time TempWeatherWind HumidityBarometerVisibility
10:50 PM
Fri, Aug 26
63 °FPassing clouds.1 mph88%30.24 "Hg6 mi
9:50 PM66 °FClear.1 mph78%30.24 "Hg6 mi
8:50 PM68 °FSunny.2 mph73%30.21 "Hg12 mi
7:50 PM73 °FSunny.5 mph61%30.18 "Hg25 mi
6:50 PM75 °FSunny.7 mph57%30.18 "Hg19 mi
5:50 PM81 °FPassing clouds.2 mph48%30.18 "Hg19 mi
4:50 PM81 °FPassing clouds.3 mph48%30.18 "Hg19 mi
3:50 PM81 °FPassing clouds.3 mph45%30.18 "Hg19 mi
2:50 PM79 °FPassing clouds.2 mph42%30.18 "Hg19 mi
1:50 PM77 °FPassing clouds.5 mph51%30.21 "Hg19 mi
12:50 PM75 °FPassing clouds.2 mph54%30.21 "Hg19 mi
12:20 PM73 °FPassing clouds.2 mph53%30.21 "Hg19 mi
11:50 AM72 °FPassing clouds.3 mph57%30.24 "Hg19 mi
11:20 AM70 °FPassing clouds.2 mph60%30.24 "Hg19 mi
10:50 AM68 °FPassing clouds.1 mph69%30.24 "Hg19 mi
10:20 AM66 °FPassing clouds.1 mph73%30.24 "Hg12 mi
9:50 AM64 °FScattered clouds.2 mph78%30.24 "Hg12 mi
9:20 AM61 °FPartly sunny.2 mph94%30.24 "Hg12 mi
8:50 AM59 °FPartly sunny.1 mph82%30.24 "Hg12 mi
8:20 AM57 °FPartly sunny.2 mph88%30.24 "Hg12 mi
7:50 AM57 °FPartly sunny.1 mph88%30.24 "Hg9 mi
7:20 AM55 °FPartly sunny.1 mph94%30.24 "Hg9 mi
6:50 AM55 °FPassing clouds.2 mph88%30.24 "Hg9 mi
5:50 AM55 °FPassing clouds.1 mph88%30.24 "Hg12 mi
Weather by CustomWeather, © 2016

See weather overviewHow to use our weather pages